Recent Observations

METAR K14M 180459Z AUTO 00000KT 03/02 A3022 RMK A02 P0000
METAR K14M 180500Z AUTO 00000KT 04/02 A3022 RMK A02 P0000
METAR K14M 180501Z AUTO 00000KT 03/02 A3022 RMK A02 P0000
METAR K14M 180502Z AUTO 00000KT 04/02 A3022 RMK A02 P0000
METAR K14M 180503Z AUTO 00000KT 04/02 A3022 RMK A02 P0000
METAR K14M 180504Z AUTO 00000KT 04/02 A3022 RMK A02 P0000
METAR K14M 180505Z AUTO 00000KT 04/02 A3022 RMK A02 P0000
METAR K14M 180506Z AUTO 00000KT 04/02 A3022 RMK A02 P0000
METAR K14M 180507Z AUTO 00000KT 04/02 A3022 RMK A02 P0000
METAR K14M 180508Z AUTO 00000KT 04/02 A3022 RMK A02 P0000
METAR K14M 180509Z AUTO 00000KT 04/02 A3022 RMK A02 P0000
METAR K14M 180510Z AUTO 00000KT 04/02 A3022 RMK A02 P0000
METAR K14M 180511Z AUTO 00000KT 04/02 A3022 RMK A02 P0000
METAR K14M 180512Z AUTO 00000KT 04/02 A3022 RMK A02 P0000
METAR K14M 180513Z AUTO 00000KT 04/02 A3022 RMK A02 P0000
METAR K14M 180514Z AUTO 00000KT 04/02 A3022 RMK A02 P0000
METAR K14M 180515Z AUTO 00000KT 04/02 A3022 RMK A02 P0000
METAR K14M 180516Z AUTO 00000KT 04/02 A3022 RMK A02 P0000
METAR K14M 180517Z AUTO 00000KT 04/02 A3022 RMK A02 P0000
METAR K14M 180518Z AUTO 00000KT 04/02 A3022 RMK A02 P0000
METAR K14M 180519Z AUTO 00000KT 04/02 A3022 RMK A02 P0000
METAR K14M 180520Z AUTO 00000KT 04/02 A3022 RMK A02 P0000
METAR K14M 180521Z AUTO 00000KT 04/02 A3022 RMK A02 P0000
METAR K14M 180522Z AUTO 00000KT 04/02 A3022 RMK A02 P0000
METAR K14M 180523Z AUTO 00000KT 04/02 A3022 RMK A02 P0000
METAR K14M 180524Z AUTO 00000KT 04/02 A3022 RMK A02 P0000
METAR K14M 180525Z AUTO 00000KT 04/02 A3022 RMK A02 P0000
METAR K14M 180526Z AUTO 00000KT 04/02 A3022 RMK A02 P0000
METAR K14M 180527Z AUTO 00000KT 04/02 A3022 RMK A02 P0000
METAR K14M 180528Z AUTO 00000KT 04/02 A3022 RMK A02 P0000
      
radar
Temperature (°F) 38.5 38.5
38.5
38.9
38.3
Humidity (%) 88 89
88
Dewpoint (°F) 35.3 35.9
35.1
Barometer (mb) 1023.4 1023.5
1023.3
Wind ( mph)
0 -
-
-
0
0 avg
Precipitation 0.00 0.00
0.00
in/hr
in
Temperature
Inside °F
67.3 67.4
67.3
Humidity
Inside %
41 41
41
Sunrise 06:50 CST waning gibbous 88 %
Sunset 20:08 CST
Forecast     GR TSP